Погода Назимово

Погода Назимово : погода сейчас, прогноз погоды и архив. Всё, что Вы хотите узнать о погоде Назимово!

Поиск расширенной информации на нашем сайте:

Другие новости

Новости СМИ2

Главная страница сайта

Новости сайта

03.07.2017

Напоминаем, что на нашем специализированном сайте Метеоцентр.Азия вы можете получить высокодетализированные автоматические прогнозы погоды по пунктам России, СНГ и мира в авиационном формате (включающие направление и скорость ветра, видимость, явления погоды, количество и форму облачности, нижнюю и верхнюю границу облачности).


Погода Назимово - сегодня

Время (UTC), дата Ветер
(°,м/с) 
Видим.   Явления Облачность Т
(°С)
Тd
(°С)
f(%) Тe
(°С)
Pmin
(гПа)
dP
(гПа)
Po
(мм)
O2
(г/м3)
Тmin Tmax R s Состояние
почвы
15 20.02.18 150 (ЮВ) н/о  слаб. снег  10/10 2000 м 
[Ac As]
-13.3 -13.9 95 -13  1025.9  -0.6  763  324           
18 20.02.18 тихо ()   н/о  {снег}  8/8 2000 м средняя 
[Ac As]
-16.7 -18.6 85 -17  1025.3  -0.7  762  329           
21 20.02.18 тихо ()   н/о  слаб. снег  10/10 2000 м 
[Ac As]
-19 -20.2 90 -19  1025.4  762  332           
00 21.02.18 тихо ()   н/о  {снег}  ясно 
-23.7 -25 89 -24  1026  0.5  763  338  -23.8    0.8  79  равномерный
сухой снег
100% 
03 21.02.18 300 (СЗ) 20000 м    3/3 2000 м средняя, верхняя 
[As trans|Ci fib]
-25.5 -26.7 90 -26  1026.5  0.4  763  341  -25.8         
06 21.02.18 320 (СЗ) 20000 м    1/1 1000 м верхняя 
[Ci fib]
-17.2 -18.4 90 -17  1026.7  0.5  763  330           
09 21.02.18 320 (СЗ) 20000 м    ясно 
-14.6 -16.6 85 -18  1026.7  0.1  763  326           
12 21.02.18 310 (СЗ) н/о    ясно 
-20.9 -22.1 90 -21  1027.2  0.3  764  335    -14.4       
15 21.02.18 330 (СЗ) н/о    ясно 
-20.7 -21.9 90 -25  1027.2  764  335           
18 21.02.18 тихо ()   н/о    ясно 
-28.4 -29.6 89 -28  1027.3  -0.2  763  345           
21 21.02.18 330 (СЗ) н/о    ясно 
-31 -32.2 89 -32  1027.5  0.1  763  349           
03 22.02.18 тихо ()   20000 м    1/0 верхняя 
[Cs]
-31.5 -33.3 84 -32  1027  -0.1  763  350  -34.3         
06 22.02.18 340 (С) 20000 м    1/0 верхняя 
[Cs]
-23.2 -25 85 -24  1025.4  -1.2  762  337           
09 22.02.18 110 (В) 20000 м    4/0 верхняя 
[Cs]
-17.3 -20.7 75 -17  1023.4  -1.7  761  329           
15 22.02.18 тихо ()   н/о    1/0 верхняя 
[Ci fib]
-26.8 -28.7 84 -27  1020.7  -1.4  758  341           
18 22.02.18 тихо ()   н/о    ясно 
-28.5 -30.4 84 -29  1019.6  -1.1  758  343           
21 22.02.18 тихо ()   н/о    ясно 
-28.4 -30.2 84 -28  1018.4  -1.2  757  342           
00 23.02.18 тихо ()   н/о    9/0 верхняя 
[Ci fib]
-27.4 -29.2 85 -27  1017.7  -0.7  756  341  -29.4      78  равномерный
сухой снег
100% 
03 23.02.18 тихо ()   10 км  слаб. снег  10/10 2000 м 
[Ns]
-22.4 -24.2 85 -22  1017.6  0.1  756  334           
06 23.02.18 120 (ЮВ) 10 км  слаб. снег  10/10 2000 м 
[Ns]
-15.1 -17.1 85 -19  1017.3  756  324           
09 23.02.18 120 (ЮВ) 10 км  слаб. снег  10/4 2000 м средняя, верхняя 
[As op|Cs]
-12.4 -14.4 85 -17  1017.5  0.3  757  321           
12 23.02.18 150 (ЮВ) н/о  в посл. час снег  10/10 2000 м 
[Ac As]
-11.3 -12.6 90 -13  1017.8  0.3  757  319    -11.3  0.7     
15 23.02.18 120 (ЮВ) н/о  слаб. снег  10/10 2000 м 
[As trans]
-13 -14.3 90 -15  1017.8  -0.1  757  321           
18 23.02.18 130 (ЮВ) н/о  слаб. снег  10/10 2000 м 
[Ac As]
-14.5 -15.1 95 -15  1017.3  -0.5  756  323           
21 23.02.18 150 (ЮВ) н/о  слаб. снег  10/10 2000 м 
[As trans]
-16.7 -18 90 -19  1017.4  756  326           
Время (UTC), дата Ветер
(°,м/с) 
Видим.   Явления Облачность Т
(°С)
Тd
(°С)
f(%) Тe
(°С)
Pmin
(гПа)
dP
(гПа)
Po
(мм)
O2
(г/м3)
Тmin Tmax R s Состояние
почвы

Для получения пояснительной информации подведите курсор к названию столбца.

ПОГОДА Назимово - архив

Всё, что Вы хотите узнать о погоде Назимово - удобно и подробно!

Выберите нужную дату (начиная с 1 января 2015* года) и нажмите кнопку "Найти".
Будут отображены архивные сводки погоды по пункту Назимово, начиная с указанной даты.


Отображать данные в формате CSV (для использования в таблицах Excel)


Внимание! Наш архив погоды предназначен исключительно для личного некоммерческого использования в познавательных целях. Если Вам необходимы официальные справки о состоянии погоды (для производственных, юридических, коммерческих и т.п. целей), обращайтесь в органы Росгидромета.

*Примечание: данная дата относится к архиву по метеостанциям СССР (Россия, СНГ, Балтия).
Архив по метеостанциям Зарубежной Европы и Азии (кроме Китая) хранится 10 дней, по другим регионам земного шара (Китай, Африка, Америка, Австралия, Океания) - 1 день.

Назимово - район местоположения метеостанции


Название, широта, долгота, высота метеостанции:
Назимово 59.5°ш. 91°д. 67 м над ур. моря [Российская Федерация]

Дополнительная информация

В oтличие oт бoльшинства пoгoдных сайтoв мы публикуем пoдрoбную метеoинфoрмацию в детальнoм прoфессиoнальнoм фoрмате.

Характеристики температуры и влажнoсти вoздуха измеряются на высoте 2 м в тени вдали oт зданий и деревьев.
Скoрoсть ветра измеряется на высoте 10 м (на урoвне рoста челoвека скoрoсть ветра ниже в 1.5-2 раза). Если метеoстанция нахoдится в гoрoде или в лесу, тo скoрoсть ветра занижена на 2-4 м/с пo сравнению с oткрытым местoм. Скoрoсть ветра над акватoриями крупных рек и oзёр, а также на вершинах хoлмoв на 2-5 м/с выше, чем в oбычных услoвиях.
Атмoсфернoе давление в разных тoчках местнoсти мoжет значительнo oтличаться oт давления на метеoстанции, в зависимoсти oт услoвий рельефа (при пoдъёме на 10 м давление пoнижается примернo на 1 мм рт.ст.).